Total_Precipitation_Accumulation
0.19 0.06 0.05 0.04 0.09 0.14 0.12 0.08 0.06 0.06 0.06 0.07 0.09 0.18 0.22 0.23 0.19 0.16 0.09 0.03 0.02 0.02
0.24 0.11 0.07 0.07 0.12 0.14 0.09 0.07 0.07 0.09 0.14 0.25 0.32 0.25 0.16 0.15 0.14 0.11 0.06 0.03 0.02 0.02
0.22 0.23 0.14 0.15 0.23 0.20 0.13 0.14 0.14 0.17 0.22 0.15 0.10 0.13 0.20 0.21 0.13 0.06 0.04 0.03 0.03 0.03
0.23 0.23 0.35 0.50 0.28 0.16 0.19 0.25 0.26 0.18 0.14 0.23 0.31 0.28 0.19 0.15 0.14 0.12 0.07 0.04 0.03 0.01
0.58 0.51 0.33 0.37 0.29 0.28 0.28 0.23 0.20 0.38 0.49 0.35 0.22 0.18 0.18 0.14 0.08 0.06 0.04 0.03 0.01 0.00
0.52 0.26 0.25 0.25 0.26 0.34 0.53 0.65 0.63 0.51 0.37 0.24 0.18 0.15 0.12 0.10 0.07 0.04 0.01 0.00 0.00 0.00
0.33 0.25 0.24 0.16 0.21 0.21 0.19 0.16 0.11 0.10 0.11 0.14 0.13 0.09 0.08 0.06 0.03 0.01 0.00 0.00 0.00 0.00
0.18 0.18 0.09 0.06 0.06 0.05 0.06 0.07 0.07 0.07 0.06 0.05 0.07 0.09 0.06 0.02 0.00 0.00 0.00 0.00 0.00 0.00
0.13 0.09 0.05 0.04 0.02 0.03 0.03 0.02 0.03 0.05 0.09 0.09 0.06 0.06 0.02 0.00 0.00 0.00 0.00 0.00 0.00 0.00
0.06 0.04 0.02 0.01 0.01 0.01 0.04 0.07 0.12 0.15 0.11 0.04 0.01 0.01 0.00 0.00 0.00 0.00 0.00 0.00 0.00 0.00
0.00 0.00 0.00 0.01 0.05 0.10 0.13 0.16 0.13 0.04 0.01 0.00 0.00 0.00 0.00 0.00 0.00 0.00 0.00 0.00 0.00 0.00
0.00 0.00 0.04 0.12 0.19 0.18 0.10 0.02 0.00 0.00 0.00 0.00 0.00 0.00 0.00 0.00 0.00 0.00 0.00 0.00 0.00 0.00
0.04 0.18 0.23 0.15 0.05 0.00 0.00 0.00 0.00 0.00 0.00 0.00 0.00 0.00 0.00 0.00 0.00 0.00 0.00 0.00 0.00 0.00
0.15 0.06 0.00 0.00 0.00 0.00 0.00 0.00 0.00 0.00 0.00 0.00 0.00 0.00 0.00 0.00 0.00 0.00 0.00 0.00 0.00 0.00